TRA2602 LEIB-EHAM

Flight info

Callsign TRA2602
Flight time N/A
Altitude 34000
Route EPAMA N856 EBROX Z26 LATRO DCT OLOXO DCT OKABI DCT TOU DCT ADABI DCT BOKNO UN858 VANAD UN874 BAMES UT191 PODEM DCT BAZOS DCT LUMIL DCT BELOB UY873 DENUT
Aircraft A21N/M-SDE2E3FGHIJ1RWXY/LB1

Departure

Time 2026-05-04 17:17
Airport Ibiza Airport (LEIB)

Arrival

Time N/A
Airport Amsterdam Airport Schiphol (EHAM)
Time Latitude Longitude Altitude Speed Heading
2026-05-04 16:45 38.87619 1.37060 14 ft 0 kts 332°
2026-05-04 17:08 38.87618 1.37061 14 ft 2 kts 332°
2026-05-04 17:08 38.87576 1.37088 14 ft 4 kts 346°
2026-05-04 17:08 38.87556 1.37086 14 ft 4 kts 53°
2026-05-04 17:09 38.87544 1.37058 16 ft 3 kts 62°
2026-05-04 17:09 38.87542 1.37054 16 ft 0 kts 62°
2026-05-04 17:11 38.87547 1.37065 15 ft 3 kts 62°
2026-05-04 17:12 38.87560 1.37096 14 ft 5 kts 61°
2026-05-04 17:12 38.87615 1.37227 14 ft 11 kts 63°
2026-05-04 17:13 38.87649 1.37518 14 ft 8 kts 160°
2026-05-04 17:14 38.87590 1.37605 14 ft 4 kts 55°
2026-05-04 17:14 38.87609 1.37646 14 ft 7 kts 60°
2026-05-04 17:14 38.87683 1.37816 14 ft 15 kts 61°
2026-05-04 17:15 38.87735 1.37944 14 ft 18 kts 62°
2026-05-04 17:15 38.87872 1.38276 14 ft 24 kts 61°
2026-05-04 17:16 38.87998 1.38591 14 ft 14 kts 85°
2026-05-04 17:16 38.87818 1.38607 17 ft 8 kts 241°
2026-05-04 17:17 38.87667 1.38248 19 ft 84 kts 243°
2026-05-04 17:17 38.86384 1.35004 1183 ft 142 kts 241°
2026-05-04 17:18 38.85926 1.33914 1883 ft 142 kts 242°
2026-05-04 17:18 38.85018 1.31497 2948 ft 171 kts 239°
2026-05-04 17:19 38.83821 1.28367 3767 ft 222 kts 250°
2026-05-04 17:19 38.83650 1.24494 5493 ft 231 kts 294°
2026-05-04 17:20 38.86148 1.21682 7087 ft 248 kts 321°
2026-05-04 17:20 38.89019 1.19140 8636 ft 256 kts 320°
2026-05-04 17:20 38.90480 1.17815 9433 ft 259 kts 319°
2026-05-04 17:21 38.93824 1.15893 10825 ft 286 kts 353°
2026-05-04 17:21 38.97991 1.17080 11525 ft 334 kts 12°
2026-05-04 17:22 39.00290 1.17930 11854 ft 353 kts 11°
2026-05-04 17:22 39.02729 1.18793 12155 ft 373 kts 11°
2026-05-04 17:23 39.10704 1.21472 13115 ft 418 kts 11°
2026-05-04 17:23 39.13542 1.22417 13632 ft 424 kts 11°
2026-05-04 17:23 39.19299 1.24334 14647 ft 430 kts 11°
2026-05-04 17:24 39.22208 1.25301 15135 ft 433 kts 10°
2026-05-04 17:24 39.31060 1.28244 16550 ft 442 kts 10°
2026-05-04 17:25 39.34006 1.29225 16996 ft 446 kts 10°
2026-05-04 17:25 39.40057 1.31246 17896 ft 452 kts 10°
2026-05-04 17:26 39.46192 1.33296 18675 ft 459 kts 10°
2026-05-04 17:26 39.55512 1.36420 19787 ft 467 kts 10°
2026-05-04 17:27 39.61909 1.37811 20490 ft 464 kts 353°
2026-05-04 17:27 39.68338 1.37023 21249 ft 467 kts 347°
2026-05-04 17:28 39.74840 1.36111 22058 ft 473 kts 348°
2026-05-04 17:29 39.84772 1.34793 23289 ft 484 kts 348°
2026-05-04 17:29 39.94866 1.33449 24367 ft 492 kts 348°
2026-05-04 17:30 40.05133 1.32075 25536 ft 495 kts 348°
2026-05-04 17:31 40.11972 1.31156 26455 ft 493 kts 348°
2026-05-04 17:31 40.22125 1.29793 27775 ft 490 kts 347°
2026-05-04 17:32 40.28890 1.28882 28695 ft 487 kts 348°
2026-05-04 17:33 40.38975 1.27517 29980 ft 485 kts 348°
2026-05-04 17:33 40.42288 1.27071 30320 ft 484 kts 348°
2026-05-04 17:34 40.52327 1.25713 31362 ft 482 kts 348°
2026-05-04 17:34 40.55662 1.25260 31686 ft 482 kts 347°
2026-05-04 17:35 40.65658 1.23897 32645 ft 481 kts 347°
2026-05-04 17:35 40.72390 1.23811 33201 ft 493 kts
2026-05-04 17:35 40.75714 1.24809 33475 ft 498 kts 10°
2026-05-04 17:36 40.79053 1.26028 33749 ft 498 kts 11°
2026-05-04 17:36 40.82392 1.27270 33933 ft 499 kts 11°
2026-05-04 17:36 40.85732 1.28499 33949 ft 498 kts 11°
2026-05-04 17:37 40.92401 1.30905 33946 ft 496 kts 10°
2026-05-04 17:37 40.99061 1.33301 33926 ft 496 kts 10°
2026-05-04 17:38 41.05675 1.35688 33929 ft 496 kts 11°
2026-05-04 17:38 41.12329 1.38098 33930 ft 496 kts 11°
2026-05-04 17:39 41.22306 1.41716 33932 ft 496 kts 11°
2026-05-04 17:39 41.28961 1.44139 33925 ft 496 kts 11°
2026-05-04 17:40 41.35569 1.46547 33936 ft 496 kts 11°
2026-05-04 17:40 41.42221 1.48980 33929 ft 496 kts 11°
2026-05-04 17:41 41.48869 1.51411 33944 ft 495 kts 11°
2026-05-04 17:41 41.55528 1.53854 33938 ft 497 kts 11°
2026-05-04 17:42 41.62135 1.56283 33940 ft 495 kts 11°
2026-05-04 17:42 41.68781 1.58729 33925 ft 495 kts 11°
2026-05-04 17:43 41.75440 1.61055 33920 ft 492 kts
2026-05-04 17:43 41.78814 1.61463 33953 ft 484 kts 354°
2026-05-04 17:43 41.82152 1.61133 33951 ft 479 kts 348°
2026-05-04 17:44 41.88712 1.60039 33955 ft 478 kts 347°
2026-05-04 17:44 41.95321 1.58954 33942 ft 479 kts 347°
2026-05-04 17:45 42.00817 1.58088 33953 ft 481 kts 348°